FW2927 Weather Reports


Display with metric or nautical units.
time (UTC)temp
F
wind
direction
speed
MPH
gust
MPH
rain 1hr
in
rain 24hr
in
rain mn
in
humidity
%
barometer
mb
20260502151551 52 134 0.0 3.0 0.00 0.00 0.00 61 1019.6
20260502123019 44 31 0.0 2.0 0.00 0.00 0.00 77 1019.1
20260502121522 43 44 0.0 3.0 0.00 0.00 0.00 76 1019.1
20260502114509 42 40 0.0 5.0 0.00 0.00 0.00 78 1018.8
20260502113016 42 63 0.0 4.0 0.00 0.00 0.00 78 1018.8
20260502111506 42 55 1.0 4.0 0.00 0.00 0.00 77 1018.5
20260502110007 42 32 0.0 3.0 0.00 0.00 0.00 77 1018.4
20260502104506 43 31 0.0 1.0 0.00 0.00 0.00 77 1018.6
20260502103005 43 35 0.0 2.0 0.00 0.00 0.00 77 1018.3
20260502101504 43 35 0.0 3.0 0.00 0.00 0.00 77 1018.3
20260502091503 44 34 0.0 2.0 0.00 0.00 0.00 77 1018.4
20260502080107 43 32 0.0 0.0 0.00 0.00 0.00 77 1018.3
20260502070056 43 32 0.0 0.0 0.00 0.00 0.00 78 1018.2
20260502064600 43 32 0.0 0.0 0.00 0.00 0.00 78 1018.3
20260502063103 43 324 0.0 1.0 0.00 0.00 0.00 78 1018.5
20260502061553 43 324 0.0 0.0 0.00 0.00 0.00 78 1018.5
20260502060108 43 324 0.0 0.0 0.00 0.00 0.00 78 1018.5
20260502054551 43 324 0.0 0.0 0.00 0.00 0.00 77 1018.8
20260502053059 44 324 0.0 0.0 0.00 0.00 0.00 76 1019.0
20260502051557 44 324 0.0 0.0 0.00 0.00 0.00 76 1018.9
20260502050044 44 324 0.0 0.0 0.00 0.00 0.00 74 1018.9
20260502044542 45 324 0.0 0.0 0.00 0.00 0.00 74 1018.9
20260502043040 45 324 0.0 0.0 0.00 0.00 0.00 73 1018.9
20260502041541 46 324 0.0 0.0 0.00 0.00 0.00 72 1018.9
20260502040037 46 324 0.0 0.0 0.00 0.00 0.00 71 1018.9
20260502034537 47 324 0.0 0.0 0.00 0.00 0.00 70 1018.9
20260502033039 47 324 0.0 0.0 0.00 0.00 0.00 69 1018.9
20260502031541 48 324 0.0 0.0 0.00 0.00 0.00 67 1018.9
20260502030035 48 324 0.0 0.0 0.00 0.00 0.00 67 1018.9
20260502024537 49 324 0.0 0.0 0.00 0.00 0.00 66 1019.0
20260502023035 50 324 0.0 0.0 0.00 0.00 0.00 63 1018.9
20260502021534 51 324 0.0 0.0 0.00 0.00 0.00 61 1018.7
20260502020029 52 324 0.0 0.0 0.00 0.00 0.00 60 1018.4
20260502014532 52 324 0.0 0.0 0.00 0.00 0.00 59 1018.3
20260502013027 53 324 0.0 0.0 0.00 0.00 0.00 58 1017.9
20260502011543 54 324 0.0 0.0 0.00 0.00 0.00 57 1017.7
20260502010026 54 324 0.0 0.0 0.00 0.00 0.00 56 1017.3
20260502004540 54 324 0.0 2.0 0.00 0.00 0.00 54 1017.2
20260502003028 55 306 0.0 4.0 0.00 0.00 0.00 54 1017.2
20260502001523 55 355 0.0 4.0 0.00 0.00 0.00 53 1016.9
20260502000024 56 343 0.0 5.0 0.00 0.00 0.00 53 1016.3
20260501234524 56 344 0.0 4.0 0.00 0.00 0.00 53 1016.0
20260501233023 56 336 1.0 6.0 0.00 0.00 0.00 53 1015.7
20260501231534 57 349 1.0 6.0 0.00 0.00 0.00 51 1016.0
20260501230019 57 343 2.0 10.0 0.00 0.00 0.00 50 1016.1
20260501224520 57 330 2.0 5.0 0.00 0.00 0.00 51 1015.9
20260501223018 58 314 0.0 8.0 0.00 0.00 0.00 49 1015.8
20260501221517 59 299 1.0 5.0 0.00 0.00 0.00 47 1015.8
20260501220023 60 309 0.0 6.0 0.00 0.00 0.00 46 1015.6
20260501214518 60 272 2.0 10.0 0.00 0.00 0.00 43 1015.8
20260501213025 59 302 3.0 6.0 0.00 0.00 0.00 46 1015.7
20260501211516 59 219 0.0 6.0 0.00 0.00 0.00 49 1015.9
20260501210020 60 306 3.0 9.0 0.00 0.00 0.00 47 1015.7
20260501204518 59 9 2.0 9.0 0.00 0.00 0.00 49 1015.9
20260501203017 58 307 2.0 6.0 0.00 0.00 0.00 49 1016.0
20260501201513 59 316 1.0 7.0 0.00 0.00 0.00 50 1016.1
20260501200014 58 315 2.0 6.0 0.00 0.00 0.00 50 1016.0
20260501194517 60 166 0.0 7.0 0.00 0.00 0.00 51 1016.1
20260501193026 61 168 2.0 9.0 0.00 0.00 0.00 47 1016.0
20260501191516 60 321 2.0 9.0 0.00 0.00 0.00 46 1016.0
20260501190019 61 307 2.0 11.0 0.00 0.00 0.00 45 1015.8
20260501184504 61 311 1.0 5.0 0.00 0.00 0.00 49 1015.7
20260501183001 60 171 3.0 10.0 0.00 0.00 0.00 50 1016.0
20260501181558 59 247 2.0 10.0 0.00 0.00 0.00 50 1016.4
20260501180059 58 313 2.0 10.0 0.00 0.00 0.00 52 1016.5
20260501174559 58 301 3.0 11.0 0.00 0.00 0.00 51 1016.4
20260501173101 58 303 3.0 9.0 0.00 0.00 0.00 52 1016.2
20260501171556 59 173 4.0 9.0 0.00 0.00 0.00 49 1016.0
20260501170057 58 312 3.0 12.0 0.00 0.00 0.00 52 1015.9
20260501164555 57 211 0.0 10.0 0.00 0.00 0.00 57 1016.2
20260501163058 58 218 3.0 9.0 0.00 0.00 0.00 56 1015.9
20260501161555 56 328 2.0 9.0 0.00 0.00 0.00 60 1016.1
20260501160111 57 148 3.0 8.0 0.00 0.00 0.00 61 1015.9
20260501154625 55 304 3.0 8.0 0.00 0.00 0.00 64 1015.9